QIANFAN-3 (60381 NORAD) Tracking and Keplerian Element Data

This shows tracking and keplerian element data for the satellite.

Feedback or suggestion? Click here.




ElementValue
Catalog60381
NameQIANFAN-3
Epoch Orbit947
Epoch Day285.75143655
Epoch Year2024
RAAN343.5694
Inclination88.9923
Eccentricity0.0014206
Argument of Perigee24.1909
Mean Anonmoly335.9937
Mean Motion14.06513594
Decay Rate1.586E-05
L11 60381U 24140C 24285.75143655 .00001586 00000+0 95035-3 0 9990
L22 60381 88.9923 343.5694 0014206 24.1909 335.9937 14.06513594 9478



Live tracking and technical data element details for QIANFAN-3 (NORAD 60381). QIANFAN-3 can be tracked NOW for your location showing map with azimuth and elevation plus other details from your city location.







IsCatalogInMostPopularTable: catalog: 60381, numindb: 5
Update: records affected: 1



GetName: 60381 QIANFAN-3

Hit Count: updated at: Fri, 06 Dec 2024 10:30:34 GMT